{"data":{"norad_id":63588,"intl_designator":"2025-076V","name":"STARLINK-33651","alt_names":[],"object_type":"PAYLOAD","status":"ACTIVE","operator":null,"country":"US","launch_date":"2025-04-14","launch_site_code":"AFETR","launch_vehicle":null,"mission":null,"orbit_class":"UNKNOWN","rcs_meters":null,"size_class":null,"mass_kg":null,"dimensions":null,"purposes":["comms"],"wikipedia_slug":null,"has_3d_model":false,"image_url":null,"decayed_at":null,"tle_current":{"epoch":"2026-05-25T00:25:37.175232Z","epoch_age_seconds":69654,"freshness":"FRESH","line1":"1 63588U 25076V   26145.01779138  .00014402  00000+0  53153-3 0  9994","line2":"2 63588  43.0038 250.6460 0003564 271.6830  88.3614 15.27597506 63509","mean_motion":15.27597506,"eccentricity":0.0003564,"inclination_deg":43.0038,"raan_deg":250.646,"arg_perigee_deg":271.683,"mean_anomaly_deg":88.3614,"bstar":0.00053153,"rev_number":6350,"period_min":94.265668433214,"perigee_km":480.55136923592,"apogee_km":485.44198532108,"semimajor_km":6861.1336772785,"source":"CELESTRAK","updated_at":"2026-05-25T13:38:20.049828Z"}}}